Location: Bassano
(45.7667°N, 11.7333°E)
Time: 10:17:54
(UTC+00:00)

X-37B - Visible Passes

Search period start: 04 March 2021 00:00
Search period end: 14 March 2021 00:00
Orbit: 383 x 391 km, 45.0° (Epoch: 27 February)

Date Brightness Start Highest point End Pass type
(mag) Time Alt. Az. Time Alt. Az. Time Alt. Az.
10 Mar 3.1 18:40:48 10° S 18:41:13 11° S 18:41:13 11° S visible
11 Mar 3.0 19:17:31 10° SW 19:18:23 16° SW 19:18:23 16° SW visible
12 Mar 2.1 18:19:40 10° SSW 18:22:14 22° SSE 18:23:05 20° SE visible
12 Mar 3.9 19:55:23 10° WSW 19:55:23 10° WSW 19:55:23 10° WSW visible
13 Mar 1.1 18:57:08 10° WSW 18:59:58 47° S 18:59:58 47° S visible
